Weather History for Hazlehurst, GA

Change the Weather History Date:

Tuesday, January 8, 2013

  Actual Average Record
Temperature  
Mean Temperature 52 °F -  
Max Temperature 75 °F 64 °F 75 °F (2013)
Min Temperature 42 °F 34 °F 20 °F (2014)
Degree Days  
Heating Degree Days 13    
Growing Degree Days 2 (Base 50)    
Moisture  
Dew Point 45 °F    
Average Humidity 80    
Maximum Humidity 92    
Minimum Humidity 70    
Precipitation  
Precipitation 0.00 in - - ()
Sea Level Pressure  
Sea Level Pressure 30.30 in    
Wind  
Wind Speed 4 mph (NE)    
Max Wind Speed 8 mph    
Max Gust Speed -    
Visibility 10 miles    
Events      
Averages and records for this station are not official NWS values.
T = Trace of Precipitation, MM = Missing Value Source: NWS Daily Summary

Daily Weather History Graph

Daily Weather History Graph

Search for Another Location

Airport:

Trip Planner

Search our weather history database for the weather conditions in past years. The results will help you decide how hot, cold, wet, or windy it might be!

Date:

Astronomy

Jan. 08, 2013 Rise Set
Actual Time 7:31 AM EST 5:43 PM EST
Civil Twilight 7:05 AM EST 6:10 PM EST
Nautical Twilight 6:34 AM EST 6:40 PM EST
Astronomical Twilight 6:05 AM EST 7:09 PM EST
Moon 4:04 AM EST (1/8) 2:44 PM EST (1/8)
Length of Visible Light 11h 04m
Length of Day
10h 11m
Waning Crescent, 14% of the Moon is Illuminated
Jan 8
Waning Crescent
Jan 11
New
Jan 18
First Quarter
Jan 26
Full
Feb 3
Last Quarter

Hourly Weather History & Observations

Time (EST) Temp. Windchill Dew Point Humidity Pressure Visibility Wind Dir Wind Speed Gust Speed Precip Events Conditions
12:15 AM 43.0 °F 40.3 °F 38.5 °F 84% 30.31 in 10.0 mi NE 4.6 mph - N/A   Clear
12:35 AM 42.8 °F 40.1 °F 38.3 °F 84% 30.30 in 10.0 mi NE 4.6 mph - N/A   Mostly Cloudy
12:55 AM 42.8 °F 40.1 °F 37.9 °F 83% 30.30 in 10.0 mi NE 4.6 mph - N/A   Scattered Clouds
1:35 AM 42.8 °F 40.1 °F 37.4 °F 81% 30.29 in 10.0 mi NE 4.6 mph - N/A   Scattered Clouds
1:55 AM 42.6 °F 39.0 °F 37.4 °F 82% 30.29 in 10.0 mi NE 5.8 mph - N/A   Mostly Cloudy
2:15 AM 42.3 °F 39.4 °F 37.0 °F 82% 30.28 in 10.0 mi NE 4.6 mph - N/A   Scattered Clouds
2:35 AM 42.3 °F 38.6 °F 36.7 °F 81% 30.28 in 10.0 mi NE 5.8 mph - N/A   Scattered Clouds
2:55 AM 42.3 °F 37.9 °F 36.7 °F 81% 30.28 in 10.0 mi NE 6.9 mph - N/A   Mostly Cloudy
3:15 AM 42.4 °F 38.1 °F 36.7 °F 80% 30.27 in 10.0 mi NE 6.9 mph - N/A   Mostly Cloudy
3:35 AM 42.8 °F 39.3 °F 36.7 °F 79% 30.27 in 10.0 mi NE 5.8 mph - N/A   Overcast
3:55 AM 43.0 °F 40.3 °F 36.9 °F 79% 30.27 in 10.0 mi NE 4.6 mph - N/A   Overcast
4:15 AM 43.0 °F 40.3 °F 37.0 °F 80% 30.27 in 10.0 mi NE 4.6 mph - N/A   Overcast
4:35 AM 43.2 °F 40.5 °F 37.0 °F 79% 30.27 in 10.0 mi ENE 4.6 mph - N/A   Overcast
4:55 AM 43.3 °F 40.7 °F 37.2 °F 79% 30.28 in 10.0 mi NE 4.6 mph - N/A   Overcast
5:15 AM 43.3 °F 39.9 °F 37.4 °F 80% 30.27 in 10.0 mi NE 5.8 mph - N/A   Overcast
5:35 AM 43.7 °F 40.3 °F 37.6 °F 79% 30.27 in 10.0 mi NE 5.8 mph - N/A   Overcast
5:55 AM 43.5 °F 40.9 °F 37.9 °F 81% 30.27 in 10.0 mi NE 4.6 mph - N/A   Mostly Cloudy
6:15 AM 43.2 °F 41.5 °F 38.1 °F 82% 30.28 in 10.0 mi NE 3.5 mph - N/A   Scattered Clouds
6:35 AM 42.8 °F - 38.3 °F 84% 30.29 in 10.0 mi Calm Calm - N/A   Scattered Clouds
6:55 AM 42.8 °F 39.3 °F 38.5 °F 85% 30.30 in 10.0 mi NE 5.8 mph - N/A   Mostly Cloudy
7:15 AM 42.8 °F 40.1 °F 38.7 °F 85% 30.30 in 10.0 mi NNE 4.6 mph - N/A   Overcast
7:35 AM 43.0 °F 40.3 °F 39.0 °F 86% 30.31 in 10.0 mi NE 4.6 mph - N/A   Overcast
7:55 AM 43.2 °F 41.5 °F 39.2 °F 86% 30.32 in 10.0 mi NE 3.5 mph - N/A   Overcast
8:15 AM 43.3 °F 41.7 °F 39.4 °F 86% 30.33 in 10.0 mi ENE 3.5 mph - N/A   Overcast
8:35 AM 43.9 °F 41.3 °F 39.7 °F 85% 30.33 in 10.0 mi ENE 4.6 mph - N/A   Overcast
8:55 AM 44.4 °F 42.9 °F 40.3 °F 85% 30.34 in 10.0 mi ENE 3.5 mph - N/A   Overcast
9:15 AM 45.3 °F - 40.8 °F 84% 30.35 in 10.0 mi Calm Calm - N/A   Overcast
9:35 AM 46.4 °F 44.3 °F 41.5 °F 83% 30.35 in 10.0 mi NE 4.6 mph - N/A   Overcast
9:55 AM 48.0 °F - 42.6 °F 82% 30.35 in 10.0 mi East 5.8 mph - N/A   Overcast
10:15 AM 49.5 °F - 43.9 °F 81% 30.36 in 10.0 mi ENE 4.6 mph - N/A   Mostly Cloudy
10:35 AM 51.1 °F - 44.6 °F 78% 30.36 in 10.0 mi ENE 5.8 mph - N/A   Overcast
10:55 AM 52.2 °F - 45.3 °F 78% 30.36 in 10.0 mi Calm Calm - N/A   Overcast
11:15 AM 52.5 °F - 45.9 °F 78% 30.35 in 10.0 mi ENE 3.5 mph - N/A   Overcast
11:35 AM 53.1 °F - 46.2 °F 78% 30.35 in 10.0 mi Calm Calm - N/A   Overcast
11:55 AM 54.5 °F - 46.8 °F 75% 30.34 in 10.0 mi Calm Calm - N/A   Overcast
12:15 PM 55.8 °F - 47.5 °F 74% 30.33 in 10.0 mi East 3.5 mph - N/A   Overcast
12:35 PM 56.5 °F - 48.0 °F 73% 30.32 in 10.0 mi NNE 3.5 mph - N/A   Mostly Cloudy
12:55 PM 57.7 °F - 48.7 °F 72% 30.31 in 10.0 mi ENE 5.8 mph - N/A   Mostly Cloudy
1:35 PM 59.0 °F - 50.0 °F 72% 30.29 in 10.0 mi NE 3.5 mph - N/A   Overcast
1:55 PM 59.9 °F - 50.5 °F 71% 30.27 in 10.0 mi ENE 6.9 mph - N/A   Overcast
2:15 PM 61.2 °F - 51.4 °F 70% 30.26 in 10.0 mi East 5.8 mph - N/A   Overcast
2:55 PM 62.2 °F - 52.2 °F 70% 30.27 in 10.0 mi ENE 5.8 mph - N/A   Overcast
3:15 PM 62.4 °F - 52.7 °F 70% 30.27 in 10.0 mi ENE 4.6 mph - N/A   Overcast
3:35 PM 62.8 °F - 53.1 °F 71% 30.27 in 10.0 mi ENE 5.8 mph - N/A   Overcast
3:55 PM 62.8 °F - 53.8 °F 72% 30.26 in 10.0 mi East 3.5 mph - N/A   Overcast
4:15 PM 62.6 °F - 53.8 °F 73% 30.26 in 10.0 mi East 8.1 mph - N/A   Overcast
4:35 PM 62.4 °F - 53.8 °F 73% 30.26 in 10.0 mi East 3.5 mph - N/A   Overcast
4:55 PM 61.9 °F - 54.1 °F 76% 30.27 in 10.0 mi East 6.9 mph - N/A   Overcast
5:15 PM 61.3 °F - 54.0 °F 77% 30.27 in 10.0 mi Calm Calm - N/A   Overcast
5:35 PM 60.8 °F - 54.0 °F 78% 30.27 in 10.0 mi NE 3.5 mph - N/A   Overcast
5:55 PM 60.4 °F - 54.0 °F 79% 30.28 in 10.0 mi Calm Calm - N/A   Overcast
6:15 PM 60.1 °F - 54.0 °F 80% 30.29 in 10.0 mi Calm Calm - N/A   Overcast
6:35 PM 59.5 °F - 54.0 °F 82% 30.30 in 10.0 mi NNE 3.5 mph - N/A   Overcast
6:55 PM 59.0 °F - 53.4 °F 82% 30.31 in 10.0 mi NNE 5.8 mph - N/A   Overcast
7:15 PM 58.5 °F - 52.5 °F 81% 30.32 in 10.0 mi NNE 5.8 mph - N/A   Overcast
7:35 PM 57.9 °F - 51.8 °F 80% 30.32 in 10.0 mi NNE 5.8 mph - N/A   Overcast
7:55 PM 57.6 °F - 51.6 °F 81% 30.32 in 10.0 mi NNE 5.8 mph - N/A   Overcast
8:55 PM 56.1 °F - 50.9 °F 83% 30.30 in 10.0 mi ENE 8.1 mph - N/A   Clear
9:15 PM 55.4 °F - 50.7 °F 84% 30.30 in 10.0 mi NE 6.9 mph - N/A   Clear
9:35 PM 54.7 °F - 50.5 °F 86% 30.30 in 10.0 mi NE 5.8 mph - N/A   Clear
9:55 PM 54.1 °F - 50.2 °F 86% 30.31 in 10.0 mi Calm Calm - N/A   Clear
10:15 PM 53.8 °F - 50.0 °F 87% 30.31 in 10.0 mi Calm Calm - N/A   Clear
10:35 PM 53.2 °F - 49.5 °F 87% 30.31 in 10.0 mi NE 3.5 mph - N/A   Clear
10:55 PM 52.7 °F - 49.3 °F 88% 30.31 in 10.0 mi NNE 3.5 mph - N/A   Clear
11:15 PM 52.0 °F - 49.1 °F 90% 30.32 in 10.0 mi Calm Calm - N/A   Clear
11:35 PM 51.3 °F - 48.9 °F 92% 30.31 in 10.0 mi Calm Calm - N/A   Clear
11:55 PM 50.7 °F - 48.6 °F 92% 30.31 in 10.0 mi Calm Calm - N/A   Clear